Regional Weather Roundup
Issued by NWS

Home | Current Version | Previous Version | Graphics & Text | Print | Product List | Glossary On
Versions: 1 2 3 4 5 6 7 8 9 10 11 12 13 14 15 16 17 18 19 20 21 22 23 24 25 26 27 28 29 30 31 32 33 34 35 36 37 38 39 40 41 42 43 44 45 46 47 48 49 50
000
ASUS43 KIND 031109
RWRIN

WEATHER ROUNDUP FOR INDIANA
NATIONAL WEATHER SERVICE INDIANAPOLIS IN
700 AM EDT FRI JUL 03 2015

NOTE: "FAIR" INDICATES FEW OR NO CLOUDS BELOW 12,000 FEET WITH NO
SIGNIFICANT WEATHER AND/OR OBSTRUCTIONS TO VISIBILITY.

* - STATION DOES NOT REPORT WEATHER SUCH AS PRECIPITATION OR FOG.

+ - STATION NOT QUALITY CONTROLLED BY THE NATIONAL WEATHER SERVICE.
    USE DATA WITH CAUTION...ESPECIALLY DEWPOINT AND RELATIVE
    HUMIDITY OBSERVATIONS.

INZ001>003-010>013-019-020-031200-
NORTHWEST INDIANA

CITY           SKY/WX    TMP DP  RH WIND       PRES   REMARKS
GARY /AIRPORT/ CLOUDY    61  57  88 CALM      29.96S
KNOX *+        CLOUDY    55  55 100 CALM      29.95R
LA PORTE +     MOCLDY    59  58  96 CALM      29.97R
MICHIGAN CITY+ MOCLDY    54  54 100 CALM      29.97R
MONTICELLO +   CLOUDY    61  56  85 E3        29.93R
RENSSELAER +   MOCLDY    59  57  94 NE7       29.94S
VALPARAISO     CLOUDY    58  54  86 NE5       29.96S

$$

LMZ046-743>745-031200-
SOUTHERN LAKE MICHIGAN

STATION/POSITION TIME  TEMP    WIND        PRES    WAVE
                       AIR SEA DIR/SP/G            HT
                 (UTC) (F)     (DEG/KT/KT) (MB)    (FT)
BURNS HARBOR     1100   62      70/  7/ 10 1014.9S
MICHIGAN CITY    1100   60     110/  7/  9   N/A
5NW MICH CITY    1100   61 63   90/  6/  8   N/A     2

$$

INZ004-005-014>016-021>024-031200-
NORTH CENTRAL INDIANA

CITY           SKY/WX    TMP DP  RH WIND       PRES   REMARKS
ELKHART        CLEAR     57  54  88 CALM      29.98
GOSHEN         MOCLDY    58  55  90 E3        29.97R
LOGANSPORT +   MOCLDY    59  50  72 NE6       29.94S
PERU/GRISSOM   MOCLDY    61  53  73 E7        29.92F
ROCHESTER +    CLOUDY    61  55  82 NE5       29.96S
SOUTH BEND     MOCLDY    58  54  86 NE3       29.98R
WARSAW +         N/A     55  55 100 E5        29.97R

$$

INZ006>009-017-018-025>027-031200-
NORTHEAST INDIANA

CITY           SKY/WX    TMP DP  RH WIND       PRES   REMARKS
ANGOLA *+        N/A     55  54  94 E5        29.98S
AUBURN +       PTCLDY    55  54  94 NE3       29.98R FOG
FORT WAYNE     MOCLDY    59  55  87 E7        29.97R
HUNTINGTON +   CLOUDY    58  55  89 NE3       29.96R

$$

INZ028-029-035-036-043>045-051>053-031200-
WEST CENTRAL INDIANA

CITY           SKY/WX    TMP DP  RH WIND       PRES   REMARKS
CRAWFORDSVL +  MOCLDY    61  54  79 E6        29.91R
GREENCASTLE +  CLOUDY    63  55  77 E6        29.90R
LAFAYETTE      MOCLDY    62  56  80 E9        29.91S
TERRE HAUTE    CLOUDY    68  63  84 NE7       29.89R

$$

INZ030>032-037>040-046>048-054>057-064-065-031200-
CENTRAL INDIANA

CITY           SKY/WX    TMP DP  RH WIND       PRES   REMARKS
CP ATTERBURY + CLOUDY    64  59  82 NE3       29.90R
FISHERS *+     CLOUDY    59  59 100 CALM      29.92R
FRANKFORT +    MOCLDY    63  57  81 NE7       29.94R
GREENWOOD *+   CLOUDY    63  59  88 NE6       29.91R
INDIANAPOLIS   CLOUDY    63  59  87 NE9       29.89R
-EAGLE CREEK   HVY RAIN  61  60  97 NE8       29.91R FOG
KOKOMO *+      CLOUDY    61  54  77 E9        29.93S
MARION +       MOCLDY    59  53  80 E6        29.95R
MT COMFORT *+  MOCLDY    63 N/A N/A N6        29.92R
SHELBYVILLE    LGT RAIN  65  61  87 NE6       29.89R
ZIONSVILLE +   CLOUDY    63  57  82 NE3       29.93R

$$

INZ033-034-041-042-049-050-058-059-031200-
EAST CENTRAL INDIANA

CITY           SKY/WX    TMP DP  RH WIND       PRES   REMARKS
MUNCIE         MOCLDY    61  54  77 E8        29.93S

$$

INZ060-061-067>069-081>083-085>088-031200-
SOUTHWEST INDIANA

CITY           SKY/WX    TMP DP  RH WIND       PRES   REMARKS
EVANSVILLE     CLOUDY    71  69  93 CALM      29.86R FOG
HUNTINGBURG *+ CLOUDY    70  66  88 NE5       29.85S VSB 1
WASHINGTON +   CLOUDY    69  65  87 CALM      29.86R FOG

$$

INZ062-063-066-070>080-084-089>092-031200-
SOUTH CENTRAL AND SOUTHEAST INDIANA

CITY           SKY/WX    TMP DP  RH WIND       PRES   REMARKS
BLOOMINGTON    CLOUDY    68  63  84 E9        29.88R
MADISON *+     CLOUDY    68  64  88 NE8       29.89R
NORTH VERNON + CLOUDY    68  68 100 E5        29.89R
SEYMOUR +      CLOUDY    70  66  88 E7        29.87R

$$



USA.gov is the U.S. government's official web portal to all federal, state and local government web resources and services.